Waarnemingen

Advertentie
Mijn weer
Leucate/Semaphore, Frankrijk (7666): temperatuur & dauwpunt: 17.01.2018 08:00:00 - 23.01.2018 08:00:00 (CET)Leucate/Semaphore, Frankrijk (7666): windsnelheid & windstoten: 17.01.2018 08:00:00 - 23.01.2018 08:00:00 (CET)Leucate/Semaphore, Frankrijk (7666): windrichting: 17.01.2018 08:00:00 - 23.01.2018 08:00:00 (CET)Leucate/Semaphore, Frankrijk (7666): luchtdruk: 17.01.2018 08:00:00 - 23.01.2018 08:00:00 (CET)Leucate/Semaphore, Frankrijk (7666): zicht: 17.01.2018 08:00:00 - 23.01.2018 08:00:00 (CET)Leucate/Semaphore, Frankrijk (7666): neerslag: 17.01.2018 08:00:00 - 23.01.2018 08:00:00 (CET)
Datum & Tijd tt [°C] td [°C] ff [km/u] ff [kn] fx [km/u] fx [kn] dd ppp [hPa] vv [km] rr [mm]
23.01.2018 08:00:00 11,5 7,0 30 16 67 36 NW 1025,2 - 0,0
23.01.2018 07:00:00 11,9 7,2 37 20 76 41 NW 1024,4 18 0,0
23.01.2018 06:00:00 12,0 6,9 40 22 68 37 NNW 1024,0 - 0,0
23.01.2018 05:00:00 11,8 6,5 18 10 36 19 NNW 1025,0 - 0,0
23.01.2018 04:00:00 12,2 6,5 21 11 46 25 NW 1025,3 20 0,0
23.01.2018 03:00:00 12,6 6,2 25 14 57 31 NW 1025,0 - 0,0
23.01.2018 02:00:00 12,9 6,7 25 14 71 38 NW 1025,1 - 0,0
23.01.2018 01:00:00 12,8 7,7 44 24 81 44 NW 1022,9 - 0,0
23.01.2018 00:00:00 13,5 7,3 31 17 98 53 NW 1023,3 - 0,0
22.01.2018 23:00:00 13,5 7,7 27 14 66 36 NW 1023,8 - 0,0
22.01.2018 22:00:00 14,3 8,0 38 21 83 45 NW 1023,7 - 0,0
22.01.2018 21:00:00 14,8 8,3 43 23 94 51 NW 1023,2 - 0,0
22.01.2018 20:00:00 15,1 8,8 36 20 93 50 NW 1022,2 - 0,0
22.01.2018 19:00:00 15,9 8,9 37 20 89 48 NW 1021,7 - 0,0
22.01.2018 18:00:00 16,6 8,5 41 22 81 44 NW 1020,8 - 0,0
22.01.2018 17:00:00 17,5 8,1 27 15 64 35 WNW 1021,0 - 0,0
22.01.2018 16:00:00 16,8 7,4 37 20 106 57 NW 1019,8 25 0,0
22.01.2018 15:00:00 16,2 8,2 43 23 92 50 NW 1017,7 - 0,0
22.01.2018 14:00:00 16,1 7,0 23 12 64 34 W 1020,5 - 0,0
22.01.2018 13:00:00 15,7 6,9 23 13 58 31 WNW 1022,0 25 0,0
22.01.2018 12:00:00 15,4 8,6 24 13 66 36 WNW 1022,7 - 0,0
22.01.2018 11:00:00 16,2 8,4 37 20 69 37 NW 1022,9 - 0,0
22.01.2018 10:00:00 16,5 7,4 21 12 54 29 WNW 1022,3 - 0,0
22.01.2018 09:00:00 14,7 8,4 21 11 74 40 NW 1022,4 - 0,0
22.01.2018 08:00:00 14,6 8,8 34 18 64 34 WNW 1022,0 - 0,0
22.01.2018 07:00:00 14,6 8,5 26 14 65 35 WNW 1021,8 25 0,0
22.01.2018 06:00:00 14,8 8,7 27 14 69 37 WNW 1021,1 - 0,0
22.01.2018 05:00:00 14,7 8,9 26 14 75 40 NW 1021,3 - 0,0
22.01.2018 04:00:00 15,1 8,8 36 20 73 39 NW 1021,3 25 0,0
22.01.2018 03:00:00 15,3 8,8 30 16 65 35 WNW 1021,5 - 0,0
22.01.2018 02:00:00 15,2 9,3 30 16 69 37 WNW 1021,5 - 0,0
22.01.2018 01:00:00 15,0 9,4 28 15 87 47 NW 1021,5 - 0,0
22.01.2018 00:00:00 15,0 9,1 41 22 105 57 NW 1020,6 - 0,0
21.01.2018 23:00:00 15,3 9,2 43 23 83 45 WNW 1021,1 - 0,0
21.01.2018 22:00:00 15,2 9,3 46 25 103 56 NW 1020,3 - 0,0
21.01.2018 21:00:00 15,5 9,4 47 26 101 54 NW 1019,0 - 0,0
21.01.2018 20:00:00 15,7 9,6 45 25 108 58 NW 1019,1 - 0,0
21.01.2018 19:00:00 16,1 10,0 48 26 103 55 NW 1018,7 20 0,0
21.01.2018 18:00:00 15,9 10,0 45 24 98 53 NW 1018,9 - 0,0
21.01.2018 17:00:00 15,9 10,4 51 28 100 54 NW 1018,9 - 0,0
21.01.2018 16:00:00 16,5 10,3 46 25 101 55 NW 1018,4 20 0,0
21.01.2018 15:00:00 17,4 10,5 44 24 101 55 NW 1018,4 - 0,0
21.01.2018 14:00:00 17,1 10,5 50 27 96 52 NW 1018,4 - 0,0
21.01.2018 13:00:00 17,2 10,8 41 22 98 53 NW 1018,3 20 0,0
21.01.2018 12:00:00 16,8 10,4 49 26 100 54 NW 1017,8 - 0,0
21.01.2018 11:00:00 16,5 10,6 43 23 92 50 NW 1017,4 - 0,0
21.01.2018 10:00:00 15,9 10,4 42 23 89 48 NW 1016,4 30 0,0
21.01.2018 09:00:00 15,2 10,2 40 21 91 49 NW 1016,7 - 0,0
21.01.2018 08:00:00 14,8 10,0 40 22 105 57 NW 1016,4 - 0,0
21.01.2018 07:00:00 14,8 10,0 41 22 96 52 NW 1016,0 30 0,0
21.01.2018 06:00:00 15,1 9,9 39 21 87 47 NW 1015,7 - 0,0
21.01.2018 05:00:00 15,3 9,6 48 26 101 55 WNW 1015,0 - 0,0
21.01.2018 04:00:00 15,2 9,5 39 21 103 56 NW 1015,4 30 0,0
21.01.2018 03:00:00 15,5 9,4 50 27 96 52 WNW 1015,2 - 0,0
21.01.2018 02:00:00 15,6 9,3 42 23 87 47 WNW 1014,3 - 0,0
21.01.2018 01:00:00 15,7 9,1 29 16 85 46 WNW 1014,7 - 0,0
21.01.2018 00:00:00 15,9 9,1 42 23 91 49 WNW 1014,2 - 0,0
20.01.2018 23:00:00 16,0 9,0 39 21 84 46 WNW 1014,0 - 0,0
20.01.2018 22:00:00 15,7 8,9 38 20 98 53 WNW 1014,4 - 0,0
20.01.2018 21:00:00 16,0 8,7 44 24 94 51 WNW 1014,0 - 0,0
20.01.2018 20:00:00 15,9 8,9 45 25 86 47 WNW 1013,5 - 0,0
20.01.2018 19:00:00 15,7 8,4 39 21 91 49 WNW 1013,5 20 0,0
20.01.2018 18:00:00 15,5 8,2 39 21 99 54 WNW 1013,5 - 0,0
20.01.2018 17:00:00 15,3 7,8 44 24 91 49 WNW 1013,7 - 0,0
20.01.2018 16:00:00 16,0 7,7 32 18 69 37 WNW 1013,9 - 0,0
20.01.2018 15:00:00 14,9 6,2 23 13 52 28 W 1014,5 - 0,0
20.01.2018 14:00:00 12,5 5,6 8 4 31 17 Z 1015,9 - 0,0
20.01.2018 13:00:00 12,1 4,3 15 8 22 12 Z 1017,3 20 0,0
20.01.2018 12:00:00 11,0 3,3 13 7 23 12 ZZW 1018,7 - 0,0
20.01.2018 11:00:00 10,1 3,8 16 9 26 14 ZZW 1019,2 - 0,0
20.01.2018 10:00:00 11,1 2,4 14 8 30 16 W 1019,9 20 0,0
20.01.2018 09:00:00 9,2 3,2 11 6 30 16 NW 1020,5 - 0,0
20.01.2018 08:00:00 7,7 3,0 8 5 21 11 WNW 1020,7 - 0,0
20.01.2018 07:00:00 8,4 3,2 13 7 24 13 NW 1020,8 20 0,0
20.01.2018 06:00:00 8,8 3,6 13 7 36 19 NW 1021,2 - 0,0
20.01.2018 05:00:00 9,4 4,0 16 9 45 24 NW 1021,5 - 0,0
20.01.2018 04:00:00 9,2 3,6 23 12 51 27 NW 1021,6 20 0,0
20.01.2018 03:00:00 9,8 3,5 27 15 53 29 NW 1022,0 - 0,0
20.01.2018 02:00:00 9,7 4,3 18 10 56 30 NW 1022,1 - 0,0
20.01.2018 01:00:00 10,1 4,0 24 13 60 32 NW 1021,9 - 0,0
20.01.2018 00:00:00 10,6 4,9 22 12 43 23 NW 1021,3 - 0,0
19.01.2018 23:00:00 10,6 5,8 18 10 52 28 NW 1020,7 - 0,0
19.01.2018 22:00:00 10,6 4,7 30 16 59 32 WNW 1020,8 - 0,0
19.01.2018 21:00:00 11,0 5,5 24 13 48 26 WNW 1020,4 - 0,0
19.01.2018 20:00:00 10,8 5,1 16 9 40 21 WNW 1020,6 - 0,0
19.01.2018 19:00:00 10,6 5,4 20 11 49 26 WNW 1019,5 18 0,0
19.01.2018 18:00:00 11,3 5,6 18 10 40 21 NW 1019,1 - 0,0
19.01.2018 17:00:00 11,5 6,0 23 13 61 33 WNW 1018,4 - 0,0
19.01.2018 16:00:00 13,6 6,2 22 12 72 39 NW 1017,4 - 0,0
19.01.2018 15:00:00 14,3 6,1 21 12 50 27 NW 1017,0 - 0,0
19.01.2018 14:00:00 14,2 5,8 22 12 49 26 NW 1018,0 - 0,0
19.01.2018 13:00:00 12,8 5,9 28 15 61 33 NW 1018,4 15 0,0
19.01.2018 12:00:00 14,4 6,7 23 12 49 27 NW 1018,8 - 0,0
19.01.2018 11:00:00 13,2 7,0 27 15 69 37 WNW 1018,8 - 0,0
19.01.2018 10:00:00 13,0 8,1 29 16 66 35 NW 1018,0 - 0,0
19.01.2018 09:00:00 12,7 7,4 23 12 63 34 NW 1017,4 - 0,0
19.01.2018 08:00:00 12,5 7,2 31 17 64 35 NW 1017,3 - 0,0
19.01.2018 07:00:00 12,5 6,7 25 13 45 24 WNW 1016,8 18 0,0
19.01.2018 06:00:00 12,3 7,0 18 10 58 31 WNW 1016,3 - 0,0
19.01.2018 05:00:00 12,9 6,9 30 16 63 34 WNW 1016,2 - 0,0
19.01.2018 04:00:00 12,2 6,0 12 6 28 15 WNW 1017,3 - 0,0
19.01.2018 03:00:00 12,0 5,6 6 3 43 23 NNO 1018,2 - 0,0
19.01.2018 02:00:00 11,9 5,1 12 7 36 19 NW 1018,7 - 0,0
19.01.2018 01:00:00 11,8 5,2 13 7 28 15 WNW 1019,4 - 0,0
19.01.2018 00:00:00 11,2 4,9 10 5 26 14 NW 1019,5 - 0,0
18.01.2018 23:00:00 11,1 4,8 9 5 22 12 NW 1019,8 - 0,0
18.01.2018 22:00:00 11,1 4,3 3 2 15 8 W 1019,8 - 0,0
18.01.2018 21:00:00 10,6 4,3 6 3 13 7 NW 1019,8 - 0,0
18.01.2018 20:00:00 10,5 4,6 5 3 17 9 ZZW 1020,0 - 0,0
18.01.2018 19:00:00 10,6 4,5 9 5 15 8 NNW 1019,9 18 0,0
18.01.2018 18:00:00 10,5 4,6 4 2 13 7 WZW 1020,3 - 0,0
18.01.2018 17:00:00 12,3 5,0 9 5 18 10 Z 1020,2 - 0,0
18.01.2018 16:00:00 12,4 6,7 13 7 23 12 Z 1020,1 - 0,0
18.01.2018 15:00:00 12,9 6,7 18 10 29 15 Z 1020,2 - 0,0
18.01.2018 14:00:00 14,1 3,8 5 3 16 8 ZZO 1021,2 - 0,0
18.01.2018 13:00:00 13,9 4,5 4 2 18 10 ZO 1022,2 - 0,0
18.01.2018 12:00:00 13,1 2,9 11 6 19 10 ZW 1023,7 - 0,0
18.01.2018 11:00:00 12,8 2,9 10 5 17 9 ZZW 1024,4 - 0,0
18.01.2018 10:00:00 11,0 2,3 8 4 21 11 ZW 1024,5 - 0,0
18.01.2018 09:00:00 7,8 1,6 16 9 23 12 ZW 1024,4 - 0,0
18.01.2018 08:00:00 6,9 2,2 16 8 27 14 WZW 1023,9 - 0,0
18.01.2018 07:00:00 8,2 1,3 16 9 20 11 WZW 1023,4 - 0,0
18.01.2018 06:00:00 8,3 2,1 10 6 28 15 WZW 1023,6 - 0,0
18.01.2018 05:00:00 9,0 2,3 16 8 28 15 NW 1023,7 - 0,0
18.01.2018 04:00:00 9,0 2,8 3 1 29 15 WZW 1024,4 - 0,0
18.01.2018 03:00:00 9,1 3,3 16 9 36 19 WNW 1024,8 - 0,0
18.01.2018 02:00:00 8,7 3,3 12 6 37 20 NW 1025,1 - 0,0
18.01.2018 01:00:00 9,2 3,4 18 10 49 26 NW 1025,1 - 0,0
18.01.2018 00:00:00 9,4 3,6 23 12 45 24 NW 1025,5 - 0,0
17.01.2018 23:00:00 9,5 3,5 23 12 39 21 NW 1025,8 - 0,0
17.01.2018 22:00:00 9,8 4,2 21 11 41 22 WNW 1026,0 - 0,0
17.01.2018 21:00:00 9,8 4,2 15 8 43 23 NW 1025,7 - 0,0
17.01.2018 20:00:00 10,0 5,0 20 11 45 24 NW 1025,1 - 0,0
17.01.2018 19:00:00 10,3 4,0 17 9 47 26 NW 1023,9 16 0,0
17.01.2018 18:00:00 10,0 3,9 27 14 73 40 NW 1023,0 - 0,0
17.01.2018 17:00:00 10,7 3,5 38 20 70 38 NW 1022,3 - 0,0
17.01.2018 16:00:00 10,3 4,4 37 20 76 41 NW 1022,3 20 0,0
17.01.2018 15:00:00 10,9 3,4 39 21 67 36 NNW 1021,2 - 0,0
17.01.2018 14:00:00 11,1 3,6 29 16 71 38 NW 1021,2 - 0,0
17.01.2018 13:00:00 9,6 4,4 28 15 87 47 NW 1021,4 20 0,2
17.01.2018 12:00:00 10,5 5,3 28 15 74 40 NW 1021,4 - 0,0
17.01.2018 11:00:00 11,3 3,1 36 19 71 38 NW 1020,8 - 0,0
17.01.2018 10:00:00 10,7 2,5 32 18 84 45 NW 1020,1 - 0,0
17.01.2018 09:00:00 10,8 4,0 37 20 79 43 NW 1018,7 - 0,0
17.01.2018 08:00:00 10,9 1,9 39 21 98 53 NW 1018,2 - 0,0

tt = temperatuur
td = dauwpunt
ff = windsnelheid
fx = windstoten
dd = windrichting
ppp = luchtdruk
vv = zicht
rr = neerslag

Weerstations in de omgeving